Temperature
18 19 19 19 15 15 16 18 18 18 20 21 21 21 19 19 19 18 21 21 21 21 21 21 20 19 19 18 17 17 17 16 16 16 17 17 17 16 16 16 16 16 16 16 16 16 17 17 17
19 19 19 18 14 16 18 17 17 18 20 21 22 21 20 19 19 20 20 20 21 20 20 19 19 19 18 18 17 17 17 17 17 16 16 16 16 16 16 16 16 16 16 16 16 16 16 17 17
19 19 19 14 14 16 17 17 16 18 20 21 21 20 19 18 19 19 19 20 20 19 19 18 18 18 18 16 16 16 15 15 16 16 16 16 16 16 16 16 16 16 16 16 16 16 16 16 16
19 19 18 15 16 17 17 16 16 17 20 21 20 18 18 16 16 17 19 19 18 18 18 17 17 17 17 16 15 16 15 14 15 14 14 15 15 15 16 16 16 16 16 16 16 16 16 16 16
19 19 14 14 16 16 16 17 17 16 17 18 19 18 17 17 17 17 17 17 17 16 16 16 16 16 16 16 16 15 14 14 14 13 14 14 15 15 15 15 16 15 15 15 15 15 16 15 16
19 17 14 15 16 17 17 18 17 16 15 16 17 17 16 15 17 15 16 16 15 15 15 15 15 15 15 15 15 15 14 14 14 13 13 14 14 15 15 15 15 15 15 15 15 15 15 15 15
17 13 15 16 16 17 16 17 14 13 10 12 13 14 14 13 13 13 15 15 15 15 15 15 15 14 14 15 15 15 14 13 13 13 13 13 14 14 14 14 15 14 14 15 15 15 15 15 15
18 13 15 16 16 17 16 15 13 11 8 11 11 8 8 9 11 12 14 14 13 13 13 13 14 14 14 14 14 14 13 13 13 13 13 13 13 14 14 14 14 14 14 15 15 14 15 15 15
18 13 15 17 17 15 13 14 13 10 9 8 7 7 7 8 11 13 13 12 12 12 12 12 13 13 13 13 13 13 13 13 13 13 13 13 13 13 14 14 14 14 14 14 14 14 15 14 14
16 14 16 18 17 11 9 10 11 10 8 7 7 7 8 9 10 10 10 10 10 10 11 11 12 12 13 13 13 13 13 13 13 13 13 13 13 13 14 14 13 14 14 14 14 14 14 14 14
17 16 17 17 17 14 11 8 9 8 6 6 5 6 7 9 9 9 8 8 8 9 10 10 10 11 12 12 12 12 12 12 12 12 12 12 12 13 13 13 13 13 13 13 13 13 13 13 13
17 17 17 15 15 13 10 7 6 6 6 6 6 7 7 8 7 7 7 8 8 9 10 11 11 11 11 11 11 11 12 12 12 12 12 12 12 12 12 12 12 12 13 13 13 13 13 13 13
16 16 13 11 11 10 9 7 6 6 6 6 6 7 6 6 6 6 7 7 7 8 8 9 10 11 11 11 11 11 11 11 11 11 11 12 12 12 12 12 12 12 12 12 12 12 13 13 13
16 14 13 12 11 10 8 7 7 6 6 6 6 6 5 5 5 6 6 7 7 8 8 8 9 9 9 10 10 10 10 11 11 11 11 11 11 12 12 12 12 12 12 12 12 12 12 12 12
17 13 13 13 12 10 10 7 6 6 5 5 5 4 4 4 4 4 4 5 5 6 7 7 8 9 9 9 9 9 10 10 10 10 11 11 10 11 11 11 12 12 12 12 12 12 12 12 12
14 14 13 11 11 11 10 5 6 5 5 4 4 4 4 4 4 4 4 5 5 6 6 7 7 7 8 8 8 8 8 8 8 9 9 9 9 9 10 10 10 11 11 12 12 12 12 13 12
13 13 14 12 9 9 8 4 4 4 4 3 3 3 4 4 3 3 4 4 5 5 5 5 6 6 6 6 6 6 6 6 6 7 7 7 7 7 7 8 9 9 10 11 11 11 11 12 13
13 13 13 11 8 7 5 4 4 3 3 2 3 3 3 3 3 3 3 3 4 4 4 4 4 4 4 4 4 5 5 4 4 4 5 5 5 5 5 6 7 7 8 9 10 10 10 10 11
13 13 12 11 8 6 5 3 3 3 2 2 2 2 3 3 3 3 2 3 3 3 3 3 2 2 2 2 2 2 2 2 2 2 3 3 3 4 4 4 5 6 7 8 8 9 9 9 10
12 12 11 9 8 6 4 3 2 3 2 2 2 2 2 2 2 2 2 2 2 2 2 1 -1 -2 -2 -2 -1 -1 -0 0 1 1 1 1 2 2 2 3 3 4 5 6 7 8 8 9 9
12 12 12 11 6 5 4 3 2 3 2 2 2 2 1 1 0 -0 -0 -0 -0 0 -0 -1 -2 -2 -2 -2 -2 -2 -2 -2 -2 -1 -0 0 1 1 2 2 2 2 3 4 5 6 6 7 9
12 12 11 10 8 6 7 5 2 2 2 2 2 2 1 0 -0 -1 -1 -2 -2 -2 -3 -3 -4 -4 -4 -3 -3 -3 -4 -4 -5 -5 -4 -2 -1 0 1 1 1 1 2 2 3 4 5 5 6
11 10 9 8 8 8 6 6 2 2 1 1 2 2 1 0 -1 -2 -3 -3 -4 -4 -5 -4 -4 -4 -4 -4 -4 -4 -5 -5 -6 -6 -6 -6 -5 -4 -2 -1 -1 -1 -0 1 1 2 3 4 5
9 9 9 7 7 9 7 7 2 0 1 1 1 1 1 -0 -1 -2 -3 -4 -5 -5 -5 -4 -5 -6 -6 -5 -5 -6 -7 -7 -7 -7 -7 -7 -6 -6 -5 -4 -4 -3 -2 -2 -0 1 2 4 4
7 9 10 11 10 10 6 6 2 1 2 1 1 1 0 -1 -2 -3 -4 -4 -5 -6 -6 -5 -6 -7 -8 -7 -6 -7 -8 -8 -8 -8 -7 -7 -6 -6 -6 -5 -5 -5 -4 -4 -3 -1 1 2 3
8 7 8 10 9 7 6 4 1 2 3 2 2 1 -0 -2 -3 -4 -4 -5 -6 -7 -7 -6 -7 -7 -8 -8 -8 -8 -8 -9 -9 -8 -8 -7 -7 -7 -6 -6 -6 -5 -5 -4 -3 -2 -0 1 3
9 7 7 7 6 5 4 2 2 2 2 2 2 1 -0 -2 -3 -4 -4 -5 -6 -7 -8 -8 -8 -8 -8 -9 -9 -9 -9 -9 -9 -9 -8 -7 -7 -7 -7 -6 -6 -5 -4 -3 -3 -2 -1 1 2
7 7 4 6 6 6 5 3 2 1 -0 -0 1 0 -1 -3 -4 -5 -6 -6 -7 -8 -9 -9 -9 -10 -10 -10 -10 -10 -10 -10 -9 -9 -8 -8 -8 -8 -7 -6 -5 -5 -4 -3 -2 -2 -1 -0 1
7 6 6 4 4 4 3 3 1 1 0 -1 0 0 -2 -3 -5 -5 -6 -7 -8 -8 -9 -10 -10 -10 -10 -11 -11 -11 -10 -10 -10 -9 -9 -8 -8 -8 -7 -6 -5 -5 -5 -4 -3 -2 -1 -1 0
6 5 4 4 4 2 1 2 2 1 1 0 0 -1 -2 -4 -5 -6 -7 -7 -8 -8 -9 -10 -11 -11 -11 -11 -11 -11 -11 -10 -10 -10 -10 -9 -9 -8 -8 -6 -6 -5 -5 -5 -3 -2 -1 -1 0
Wind_Speed
11 8 3 4 6 7 5 3 3 7 5 4 3 7 8 8 5 4 4 4 3 4 5 4 5 3 3 2 2 2 1 2 3 2 1 3 4 4 4 6 7 7 7 7 7 7 6 5 5
7 4 5 5 6 7 5 6 6 7 5 2 5 7 8 8 5 5 6 7 7 6 4 3 1 2 3 3 3 4 3 3 3 3 3 4 5 5 6 6 7 9 11 10 9 9 7 6 6
3 4 5 6 6 5 4 6 5 6 5 5 5 7 7 8 9 8 9 7 9 8 7 6 3 3 5 5 5 5 5 4 5 4 5 6 6 6 8 8 9 10 10 10 10 10 8 7 7
3 4 6 7 8 5 3 6 8 7 8 10 6 7 6 10 10 12 9 7 8 7 7 6 4 4 5 6 6 7 7 6 6 6 7 8 9 10 8 10 11 10 9 8 8 9 9 7 6
5 5 8 7 6 4 4 5 7 10 9 11 7 6 6 12 17 16 14 10 10 8 11 9 8 7 6 6 7 7 7 7 7 8 7 9 12 11 8 9 11 10 7 5 6 7 7 7 7
5 5 7 6 4 5 5 6 6 9 10 11 9 4 6 17 26 20 17 17 17 15 19 20 20 17 13 10 8 8 8 8 8 9 8 11 13 11 9 10 10 8 4 4 5 7 7 6 6
5 6 5 4 2 5 8 7 10 9 14 12 10 5 8 23 26 18 17 18 20 24 23 24 24 23 21 16 12 8 7 7 7 8 11 12 11 7 9 9 9 8 6 6 7 8 8 8 7
5 6 4 3 4 6 8 8 11 16 13 10 11 10 9 18 19 14 18 21 19 20 22 24 24 25 24 23 24 21 14 10 8 6 9 11 10 6 5 7 8 9 9 7 8 8 8 7 7
4 6 4 3 4 7 10 8 8 9 13 17 13 9 9 13 15 23 24 24 23 22 19 24 24 25 24 23 25 26 26 22 17 8 8 9 8 8 7 8 9 9 9 9 9 9 8 7 6
6 5 2 2 5 9 10 12 5 9 17 16 20 19 15 17 22 26 24 22 23 22 19 20 23 25 24 23 23 24 24 24 23 18 13 10 10 11 11 11 13 13 13 12 11 10 10 8 7
4 4 2 6 9 11 9 17 15 9 14 12 13 16 17 20 23 22 19 16 15 15 18 16 19 23 23 21 21 20 22 22 23 25 23 18 13 10 8 7 9 11 11 10 10 10 10 8 7
4 5 6 5 9 10 10 11 19 22 11 7 8 10 16 20 20 18 18 17 16 17 19 17 20 21 21 20 19 19 19 20 19 21 23 20 11 9 9 6 6 6 7 6 7 5 7 8 8
5 6 8 11 23 23 23 19 18 16 9 8 13 18 20 20 18 17 16 17 19 20 20 19 19 19 20 17 16 17 19 19 19 20 23 23 13 7 10 8 9 7 6 5 4 4 5 5 6
6 12 11 10 14 12 21 15 12 10 8 12 16 18 18 19 18 18 20 19 18 18 17 17 16 21 21 16 14 12 15 17 18 18 21 23 19 14 10 10 8 8 8 7 5 4 5 6 6
6 13 11 7 6 9 14 15 9 8 9 14 14 13 17 18 18 17 17 16 16 16 17 17 15 20 19 17 16 15 16 15 14 15 18 21 21 20 16 10 11 11 14 11 6 6 4 5 5
5 5 4 7 6 5 6 6 7 9 11 15 13 12 14 15 15 14 14 14 15 15 16 17 18 18 18 16 17 15 16 14 13 14 16 19 20 20 16 10 10 14 14 7 7 6 5 5 5
8 4 4 5 13 7 10 8 9 9 12 13 12 11 13 13 15 15 14 15 16 15 15 17 16 15 16 16 17 16 16 14 14 13 14 19 19 20 16 9 10 16 9 7 7 8 6 6 6
2 3 4 5 8 13 15 13 10 7 11 11 11 12 14 16 15 14 15 16 16 15 16 17 17 16 16 14 14 12 11 12 14 12 14 19 18 19 16 11 12 13 9 8 8 8 7 7 7
3 4 4 4 4 9 14 14 8 7 11 12 12 12 14 12 11 13 15 15 17 17 17 18 18 18 15 13 14 13 13 11 9 11 16 19 20 21 16 9 10 11 11 10 9 9 9 6 5
5 6 4 3 3 7 13 12 7 5 5 5 7 9 10 13 14 16 17 17 20 19 18 18 17 15 14 14 15 12 12 11 9 13 16 18 20 20 17 11 11 11 12 12 9 9 7 5 5
3 3 3 4 6 8 11 6 3 1 1 3 5 5 7 10 11 13 14 16 19 20 19 17 16 15 15 17 14 12 12 10 9 11 12 17 20 19 18 15 10 11 10 10 10 9 9 8 7
2 1 3 5 6 4 5 2 4 2 4 6 9 9 10 10 9 12 15 16 19 18 18 17 16 14 15 17 15 17 13 13 14 12 12 14 19 18 17 16 13 10 10 9 10 10 9 10 9
5 3 0 4 5 4 2 2 3 2 6 7 9 10 10 10 9 12 13 14 16 15 15 17 17 14 14 14 16 14 13 13 13 13 14 13 13 15 16 16 13 10 10 10 11 11 11 10 10
6 2 3 4 3 1 2 4 2 1 3 7 8 10 11 10 10 12 11 12 13 14 15 17 17 16 15 16 17 15 14 14 14 15 14 13 11 10 13 17 14 13 13 13 12 11 13 12 12
9 7 6 6 4 3 2 1 2 4 5 6 8 9 10 10 9 11 11 14 15 14 17 18 18 17 15 16 16 15 14 13 14 14 13 14 12 11 14 16 16 16 15 15 13 12 13 13 15
5 5 4 3 5 6 3 1 2 5 6 6 8 10 9 9 8 10 10 14 15 14 17 18 17 17 16 16 16 15 14 11 11 13 14 13 11 12 15 14 16 16 17 17 15 13 13 12 14
3 5 3 1 5 5 3 2 2 3 8 9 10 9 9 9 9 9 10 14 15 14 15 17 17 16 16 15 15 14 13 12 12 15 14 12 12 13 13 15 18 18 19 18 16 13 13 12 13
7 5 5 6 6 7 6 3 1 6 9 10 11 10 8 8 9 9 9 12 13 13 13 15 16 15 15 14 12 11 13 13 13 13 14 14 15 16 17 18 19 19 19 19 17 14 13 12 10
4 4 5 2 2 2 7 5 3 3 7 10 12 9 8 9 11 8 9 11 12 12 12 15 15 15 15 15 14 13 13 13 14 14 15 16 16 17 18 19 19 19 19 17 15 14 13 12 7
4 4 4 2 2 2 2 5 2 3 8 9 10 8 7 9 10 7 7 9 11 11 11 12 13 13 14 14 13 13 14 15 15 15 16 16 17 17 18 18 19 19 18 17 16 13 11 9 3
Wind_Direction
338 344 47 48 51 64 49 4 343 346 358 5 85 100 101 68 64 89 322 22 41 71 144 175 189 202 220 244 279 309 335 15 59 78 297 274 271 281 278 272 271 271 266 258 250 245 241 221 195
348 3 44 60 69 64 27 357 4 336 324 337 58 64 61 36 11 8 0 25 48 55 51 22 285 293 301 298 297 293 296 310 332 327 291 287 286 281 283 286 288 283 269 258 251 246 245 230 206
16 48 60 61 68 65 9 342 321 298 345 23 55 52 47 2 352 356 337 37 48 42 30 16 329 316 311 308 308 302 296 284 278 276 273 267 272 284 291 292 294 295 279 268 261 254 250 244 232
47 48 57 67 64 46 11 324 330 345 14 27 45 52 68 48 349 328 330 33 38 22 17 4 328 318 319 318 319 308 295 288 283 279 278 276 266 256 267 286 290 291 291 281 275 262 260 263 254
51 67 61 61 48 0 351 350 352 37 24 5 32 73 58 9 350 351 2 21 19 2 2 357 354 346 342 342 331 319 311 298 286 276 268 279 274 258 240 272 278 268 267 285 292 282 274 268 261
49 66 71 70 27 346 359 359 16 37 23 14 19 57 72 357 2 358 14 28 23 15 9 5 360 358 356 354 345 342 331 308 292 290 276 268 266 256 257 272 272 260 263 290 290 284 281 281 278
74 73 79 85 23 21 4 8 36 38 23 10 347 23 16 1 354 354 20 28 24 20 16 10 4 1 357 350 348 339 325 305 302 312 301 285 290 286 290 277 275 276 279 295 296 293 295 288 281
94 91 79 74 65 49 23 47 45 46 33 12 25 22 359 343 346 3 31 31 27 22 20 13 9 8 3 2 360 355 341 317 288 265 283 287 288 273 290 286 272 275 274 272 281 281 273 280 286
78 71 72 71 68 50 12 56 44 67 58 51 44 39 1 352 12 31 29 25 23 20 18 16 14 12 9 11 6 5 0 353 337 297 286 298 298 295 290 271 264 268 259 258 264 267 267 266 271
71 93 128 78 86 99 52 47 15 57 46 35 29 26 21 26 34 37 31 24 22 18 15 17 16 14 12 11 7 6 6 2 359 356 337 314 307 297 283 272 277 278 264 260 261 260 258 263 266
84 112 141 62 86 108 82 48 40 66 50 23 20 19 22 33 36 36 34 28 23 18 17 15 17 15 14 11 9 8 5 4 4 6 1 347 330 314 304 290 291 294 285 280 274 270 265 252 245
72 59 54 33 71 79 76 76 60 59 65 38 37 35 35 35 32 27 24 18 11 13 11 5 10 10 8 7 8 6 5 4 360 358 3 2 353 343 332 311 300 297 297 294 287 277 278 267 247
52 65 58 75 84 84 83 76 76 56 41 39 42 40 36 35 31 27 24 22 16 11 4 1 2 4 357 357 0 2 2 1 357 360 4 4 360 356 346 333 322 303 295 285 281 283 277 270 263
60 87 98 82 79 77 81 66 72 47 35 42 38 37 34 33 27 24 22 20 17 12 5 359 0 3 356 350 348 353 357 355 357 1 3 3 2 358 352 342 332 319 306 284 266 259 264 264 258
94 93 74 39 94 123 86 52 54 53 40 41 26 23 29 28 24 23 16 11 6 2 356 355 355 358 355 350 344 345 351 353 353 355 357 360 360 356 350 342 338 333 324 302 276 258 247 254 254
44 58 61 19 13 13 78 73 50 55 50 42 23 17 24 21 18 14 12 7 2 359 356 353 352 351 348 346 343 340 343 345 346 347 351 354 354 353 346 337 333 331 326 313 293 273 257 248 236
30 48 37 13 14 35 77 106 65 46 53 43 24 19 20 14 13 6 5 2 359 357 354 351 352 350 346 346 346 337 333 333 333 338 348 346 345 346 341 330 326 326 320 314 303 287 262 252 249
345 30 45 40 36 67 85 93 74 43 48 35 21 18 15 10 2 355 359 358 355 354 354 353 352 351 349 348 346 342 337 331 330 328 340 337 334 336 335 327 327 323 318 315 314 299 280 255 246
165 111 88 87 98 76 90 94 76 50 48 34 22 12 8 357 344 355 357 353 351 352 354 355 350 350 349 355 346 340 334 329 327 324 333 331 332 332 332 330 324 323 317 312 309 303 286 269 237
111 114 107 94 86 109 106 94 77 51 51 39 18 2 356 346 349 355 354 354 355 352 350 353 350 349 352 358 339 331 325 323 326 329 329 332 334 331 333 331 324 322 319 314 317 315 301 274 219
33 114 187 178 92 95 119 100 96 44 350 27 21 354 339 342 340 348 351 357 356 351 347 344 344 348 353 357 341 335 330 328 332 334 334 335 334 336 333 328 326 322 316 313 317 312 308 294 273
324 335 262 172 146 169 185 186 197 243 359 4 358 351 339 333 339 348 352 356 355 345 338 337 340 347 356 355 346 342 343 342 340 336 332 330 330 330 330 329 325 316 311 311 311 312 306 295 283
296 328 202 136 139 118 142 203 227 312 356 340 331 333 332 330 344 348 348 355 348 341 346 347 345 348 357 354 345 341 339 341 336 333 331 328 326 329 330 326 317 309 310 309 307 307 299 292 280
307 22 69 67 88 143 199 235 250 313 302 301 309 323 326 329 342 343 343 351 345 349 354 346 342 343 349 351 342 342 340 339 334 333 333 328 327 329 331 330 324 320 317 311 304 298 292 289 275
9 24 21 7 348 254 175 180 240 207 247 272 294 310 318 328 333 337 343 350 349 355 356 348 341 340 350 352 341 340 342 337 332 331 327 318 324 327 330 330 327 320 312 306 300 293 287 283 271
28 62 69 326 292 301 348 341 266 214 253 287 296 299 316 321 328 333 348 351 349 355 355 348 343 342 347 347 339 338 343 339 335 326 316 310 318 323 326 324 316 311 306 300 295 288 280 277 269
45 57 82 335 314 318 320 348 339 288 294 307 302 307 321 330 331 338 356 356 352 353 353 343 340 338 339 341 336 335 337 337 332 323 314 316 323 322 323 318 313 308 303 296 287 285 278 275 270
73 86 36 24 349 318 308 296 305 315 307 316 316 321 335 334 340 352 3 355 352 349 350 340 337 335 334 337 334 332 330 331 329 325 322 324 326 325 324 321 316 312 308 302 292 282 279 274 272
30 52 73 109 139 262 305 299 201 269 317 318 314 329 345 344 346 353 1 354 347 346 353 343 339 338 339 338 335 333 332 332 332 330 327 325 322 322 323 324 322 324 325 321 310 290 268 262 241
111 110 115 129 262 194 245 279 168 331 316 310 315 338 346 343 338 345 358 347 342 344 351 344 340 339 338 335 334 334 333 334 333 330 327 324 322 321 323 326 329 332 338 346 346 337 315 282 234
Height
1518 1517 1517 1518 1523 1532 1539 1534 1530 1526 1522 1521 1521 1523 1526 1530 1535 1543 1539 1536 1536 1536 1536 1535 1535 1534 1534 1534 1534 1533 1533 1533 1533 1533 1534 1534 1534 1534 1534 1534 1535 1535 1536 1535 1535 1536 1536 1535 1535
1518 1518 1519 1519 1533 1544 1541 1535 1534 1530 1526 1524 1525 1526 1529 1534 1537 1539 1539 1539 1538 1538 1538 1537 1537 1536 1536 1535 1534 1533 1533 1533 1532 1532 1533 1533 1533 1533 1533 1533 1533 1534 1534 1534 1534 1534 1534 1534 1535
1519 1519 1522 1527 1542 1548 1545 1537 1536 1531 1528 1526 1528 1531 1537 1543 1544 1544 1544 1543 1542 1540 1540 1539 1538 1537 1537 1536 1535 1534 1533 1532 1532 1531 1531 1531 1531 1531 1532 1531 1531 1532 1532 1532 1532 1532 1532 1533 1534
1521 1523 1526 1537 1546 1545 1543 1540 1535 1531 1529 1529 1532 1538 1546 1551 1549 1548 1546 1546 1545 1543 1542 1541 1540 1538 1537 1536 1535 1534 1533 1532 1531 1531 1530 1531 1530 1529 1529 1529 1529 1529 1530 1530 1530 1531 1531 1531 1532
1522 1524 1536 1547 1547 1545 1542 1541 1537 1535 1535 1535 1536 1543 1548 1551 1551 1549 1547 1547 1546 1546 1544 1543 1542 1540 1538 1536 1535 1533 1532 1531 1531 1529 1529 1529 1529 1528 1528 1527 1527 1528 1528 1529 1529 1529 1529 1530 1530
1525 1529 1547 1555 1551 1546 1544 1543 1540 1540 1542 1541 1543 1547 1554 1555 1549 1549 1549 1546 1545 1544 1543 1541 1540 1539 1538 1536 1535 1533 1531 1530 1529 1528 1528 1527 1528 1528 1527 1526 1526 1526 1526 1527 1527 1527 1527 1528 1528
1529 1538 1552 1554 1553 1550 1548 1547 1549 1550 1550 1551 1551 1553 1557 1554 1554 1553 1551 1548 1546 1544 1543 1541 1539 1537 1536 1536 1535 1533 1531 1529 1528 1527 1526 1525 1525 1525 1525 1524 1524 1524 1524 1524 1524 1524 1525 1526 1526
1533 1541 1552 1553 1553 1554 1554 1553 1558 1556 1563 1561 1558 1566 1568 1566 1560 1556 1551 1548 1547 1545 1544 1542 1540 1538 1536 1535 1534 1533 1532 1530 1528 1526 1524 1523 1523 1523 1522 1521 1522 1522 1522 1521 1521 1521 1521 1522 1523
1536 1549 1556 1552 1552 1558 1556 1557 1562 1568 1568 1567 1573 1577 1578 1571 1563 1555 1550 1549 1548 1547 1546 1544 1542 1540 1537 1535 1534 1532 1530 1529 1527 1526 1524 1522 1522 1521 1520 1520 1520 1519 1518 1518 1518 1518 1518 1518 1519
1539 1553 1551 1549 1551 1561 1562 1562 1565 1570 1571 1575 1578 1579 1576 1570 1561 1556 1555 1554 1553 1551 1549 1547 1544 1541 1539 1536 1534 1532 1530 1528 1526 1524 1522 1521 1520 1519 1518 1517 1517 1517 1516 1516 1516 1516 1516 1515 1515
1541 1547 1547 1550 1552 1556 1562 1567 1569 1572 1582 1588 1587 1583 1578 1571 1565 1563 1563 1562 1560 1558 1554 1550 1547 1544 1540 1537 1534 1531 1529 1527 1524 1521 1519 1518 1516 1515 1515 1514 1514 1513 1512 1512 1512 1512 1512 1512 1512
1545 1547 1549 1553 1554 1558 1567 1576 1578 1585 1594 1594 1589 1585 1579 1572 1569 1568 1567 1565 1562 1559 1556 1553 1550 1547 1543 1540 1536 1532 1528 1525 1522 1520 1518 1516 1514 1512 1511 1510 1510 1509 1508 1508 1508 1508 1508 1508 1509
1548 1552 1556 1560 1558 1567 1572 1579 1586 1595 1598 1595 1591 1584 1580 1577 1575 1574 1572 1568 1565 1560 1557 1554 1551 1548 1545 1542 1538 1534 1530 1526 1523 1519 1516 1513 1511 1509 1508 1506 1505 1504 1503 1503 1503 1503 1503 1504 1504
1552 1555 1561 1565 1567 1573 1576 1585 1590 1600 1599 1595 1591 1587 1585 1583 1580 1577 1572 1569 1566 1563 1560 1557 1553 1549 1545 1541 1537 1533 1529 1526 1523 1519 1515 1512 1509 1506 1504 1502 1502 1500 1499 1498 1497 1498 1498 1498 1498
1554 1559 1564 1569 1570 1572 1573 1591 1600 1604 1600 1597 1595 1593 1590 1588 1584 1580 1578 1575 1571 1567 1563 1558 1553 1549 1545 1540 1536 1531 1527 1523 1520 1516 1513 1510 1506 1503 1500 1498 1497 1496 1494 1492 1492 1492 1492 1492 1492
1557 1563 1570 1575 1573 1572 1578 1605 1606 1605 1600 1598 1598 1595 1593 1590 1587 1584 1581 1576 1572 1567 1562 1558 1553 1548 1542 1538 1534 1529 1525 1521 1517 1513 1508 1505 1501 1498 1495 1493 1491 1489 1488 1487 1485 1485 1485 1485 1484
1567 1573 1573 1575 1575 1572 1578 1604 1609 1609 1604 1601 1599 1596 1594 1591 1588 1585 1582 1578 1572 1567 1561 1555 1549 1544 1538 1534 1530 1525 1520 1516 1512 1509 1504 1500 1496 1492 1489 1487 1485 1483 1481 1479 1478 1477 1478 1477 1477
1575 1576 1576 1579 1583 1582 1591 1607 1612 1612 1609 1606 1603 1600 1597 1595 1592 1588 1583 1578 1573 1567 1561 1555 1548 1542 1535 1529 1524 1519 1514 1510 1506 1503 1500 1495 1491 1487 1483 1479 1478 1476 1474 1471 1470 1470 1470 1470 1471
1568 1573 1576 1580 1586 1593 1601 1609 1613 1612 1608 1606 1603 1600 1597 1595 1592 1588 1582 1576 1570 1564 1557 1551 1545 1539 1533 1526 1520 1514 1509 1505 1501 1497 1494 1490 1485 1481 1477 1474 1471 1469 1467 1464 1463 1462 1463 1463 1465
1568 1571 1576 1584 1585 1593 1604 1611 1613 1611 1609 1607 1604 1600 1597 1594 1590 1587 1582 1575 1569 1563 1555 1548 1541 1535 1529 1524 1519 1514 1508 1504 1500 1494 1489 1485 1480 1477 1473 1468 1465 1463 1461 1458 1456 1456 1455 1456 1458
1572 1572 1572 1576 1587 1592 1602 1614 1614 1612 1610 1607 1604 1602 1600 1597 1592 1586 1581 1576 1570 1564 1556 1549 1543 1537 1530 1522 1516 1510 1504 1500 1495 1489 1484 1480 1475 1471 1468 1464 1460 1457 1455 1451 1449 1449 1449 1448 1449
1575 1571 1572 1575 1583 1591 1593 1603 1613 1611 1609 1606 1603 1599 1597 1594 1590 1586 1580 1573 1567 1562 1556 1549 1542 1536 1529 1522 1515 1509 1503 1497 1491 1486 1481 1476 1471 1468 1463 1459 1455 1452 1449 1444 1442 1441 1441 1440 1440
1574 1572 1573 1574 1579 1584 1591 1595 1612 1611 1610 1606 1603 1600 1596 1593 1589 1585 1579 1572 1565 1558 1552 1545 1538 1532 1526 1520 1514 1508 1503 1498 1492 1486 1480 1475 1469 1462 1457 1453 1450 1446 1441 1437 1435 1435 1434 1432 1433
1573 1572 1573 1578 1580 1579 1586 1586 1607 1613 1611 1608 1603 1601 1598 1593 1588 1583 1577 1570 1562 1556 1549 1541 1535 1530 1524 1519 1513 1507 1502 1496 1490 1484 1477 1471 1466 1461 1455 1449 1443 1438 1434 1431 1428 1426 1425 1424 1424
1578 1579 1581 1578 1579 1575 1586 1588 1608 1609 1607 1605 1602 1599 1596 1592 1586 1580 1573 1565 1558 1552 1547 1539 1534 1530 1524 1518 1511 1505 1500 1494 1488 1482 1476 1470 1464 1458 1451 1444 1438 1433 1429 1425 1421 1417 1416 1416 1416
1588 1591 1597 1596 1590 1591 1589 1598 1611 1607 1605 1603 1601 1598 1594 1590 1585 1579 1572 1565 1559 1552 1546 1539 1533 1528 1522 1516 1510 1503 1498 1492 1486 1481 1476 1471 1465 1459 1452 1445 1438 1431 1425 1419 1414 1409 1408 1407 1406
1590 1596 1600 1603 1601 1609 1606 1610 1609 1607 1605 1603 1599 1596 1591 1588 1584 1578 1571 1564 1559 1551 1546 1539 1533 1527 1521 1514 1508 1502 1496 1490 1484 1478 1474 1469 1464 1458 1452 1444 1435 1428 1421 1415 1409 1404 1401 1399 1398
1595 1600 1609 1609 1614 1607 1597 1607 1610 1609 1606 1601 1597 1593 1590 1587 1583 1576 1569 1563 1558 1551 1545 1540 1534 1527 1520 1513 1507 1501 1495 1488 1482 1475 1469 1464 1459 1453 1447 1441 1433 1425 1417 1409 1403 1398 1394 1392 1391
1600 1602 1607 1614 1618 1618 1615 1611 1612 1610 1606 1603 1597 1592 1589 1585 1581 1574 1567 1562 1557 1549 1543 1539 1532 1526 1519 1512 1506 1500 1494 1487 1479 1472 1466 1460 1454 1448 1442 1436 1429 1421 1413 1404 1396 1392 1388 1386 1386
1600 1606 1610 1617 1616 1621 1625 1618 1608 1609 1606 1602 1597 1592 1589 1584 1579 1572 1566 1560 1554 1546 1540 1535 1530 1524 1518 1511 1504 1498 1492 1484 1477 1470 1463 1457 1451 1445 1440 1434 1427 1419 1410 1401 1391 1386 1383 1383 1384